Time,TemperatureF,DewpointF,PressureIn,WindDirection,WindDirectionDegrees,WindSpeedMPH,WindSpeedGustMPH,Humidity,HourlyPrecipIn,Conditions,Clouds,dailyrainin,SolarRadiationWatts/m^2,SoftwareType,DateUTC
2013-03-30 00:00:00,42.2,26.2,30.04,NNW,338,0.0,4.0,53,0.00,,,0.00,0000,Weather View 32 v70,2013-03-30 04:00:00,
2013-03-30 00:05:00,42.2,26.7,30.04,North,0,0.0,4.0,54,0.00,,,0.00,0000,Weather View 32 v70,2013-03-30 04:05:00,
2013-03-30 00:10:00,41.9,27.3,30.04,NNW,338,0.0,4.0,56,0.00,,,0.00,0000,Weather View 32 v70,2013-03-30 04:10:00,
2013-03-30 00:15:00,42.0,27.0,30.04,NNW,338,0.0,4.0,55,0.00,,,0.00,0000,Weather View 32 v70,2013-03-30 04:15:00,
2013-03-30 00:20:00,41.9,26.9,30.04,NNW,338,0.0,4.0,55,0.00,,,0.00,0000,Weather View 32 v70,2013-03-30 04:20:00,
2013-03-30 00:25:00,41.8,26.4,30.04,NNW,338,0.0,4.0,54,0.00,,,0.00,0000,Weather View 32 v70,2013-03-30 04:25:00,
2013-03-30 00:30:00,41.8,26.8,30.04,NNW,338,0.0,4.0,55,0.00,,,0.00,0000,Weather View 32 v70,2013-03-30 04:30:00,
2013-03-30 00:40:00,41.9,26.5,30.05,North,0,0.0,2.0,54,0.00,,,0.00,0000,Weather View 32 v70,2013-03-30 04:40:00,
2013-03-30 00:50:00,41.9,26.5,30.04,NNW,338,0.0,0.0,54,0.00,,,0.00,0000,Weather View 32 v70,2013-03-30 04:50:00,
2013-03-30 01:00:00,41.9,26.5,30.04,NNW,338,0.0,0.0,54,0.00,,,0.00,0000,Weather View 32 v70,2013-03-30 05:00:00,
2013-03-30 01:05:00,42.0,26.6,30.04,NNW,338,0.0,0.0,54,0.00,,,0.00,0000,Weather View 32 v70,2013-03-30 05:05:00,
2013-03-30 01:15:00,42.2,27.1,30.04,NNW,338,0.0,0.0,55,0.00,,,0.00,0000,Weather View 32 v70,2013-03-30 05:15:00,
2013-03-30 01:20:00,42.0,27.5,30.05,NNW,338,0.0,0.0,56,0.00,,,0.00,0008,Weather View 32 v70,2013-03-30 05:20:00,
2013-03-30 01:30:00,42.0,27.0,30.05,NNW,338,0.0,0.0,55,0.00,,,0.00,0000,Weather View 32 v70,2013-03-30 05:30:00,
2013-03-30 01:40:00,42.0,27.5,30.05,NNW,338,0.0,0.0,56,0.00,,,0.00,0008,Weather View 32 v70,2013-03-30 05:40:00,
2013-03-30 01:50:00,42.0,27.0,30.04,NNW,338,0.0,1.0,55,0.00,,,0.00,0008,Weather View 32 v70,2013-03-30 05:50:00,
2013-03-30 02:00:00,42.2,27.6,30.04,NNW,338,0.0,8.0,56,0.00,,,0.00,0000,Weather View 32 v70,2013-03-30 06:00:00,
2013-03-30 02:05:00,42.3,27.7,30.04,North,0,0.0,8.0,56,0.00,,,0.00,0000,Weather View 32 v70,2013-03-30 06:05:00,
2013-03-30 02:15:00,42.2,27.6,30.04,North,0,0.0,8.0,56,0.00,,,0.00,0008,Weather View 32 v70,2013-03-30 06:15:00,
2013-03-30 02:20:00,42.2,27.6,30.04,North,0,2.0,8.0,56,0.00,,,0.00,0000,Weather View 32 v70,2013-03-30 06:20:00,
2013-03-30 02:25:00,42.2,27.6,30.04,North,0,0.0,8.0,56,0.00,,,0.00,0000,Weather View 32 v70,2013-03-30 06:25:00,
2013-03-30 02:35:00,41.9,27.3,30.04,WNW,293,0.0,8.0,56,0.00,,,0.00,0000,Weather View 32 v70,2013-03-30 06:35:00,
2013-03-30 02:40:00,41.8,27.3,30.04,NNW,338,0.0,8.0,56,0.00,,,0.00,0000,Weather View 32 v70,2013-03-30 06:40:00,
2013-03-30 02:50:00,41.7,27.6,30.04,NW,315,0.0,8.0,57,0.00,,,0.00,0000,Weather View 32 v70,2013-03-30 06:50:00,
2013-03-30 03:00:00,41.6,27.9,30.04,NW,315,0.0,5.0,58,0.00,,,0.00,0000,Weather View 32 v70,2013-03-30 07:00:00,
2013-03-30 03:05:00,41.6,27.5,30.04,North,0,0.0,5.0,57,0.00,,,0.00,0000,Weather View 32 v70,2013-03-30 07:05:00,
2013-03-30 03:15:00,41.6,28.3,30.05,NNW,338,0.0,5.0,59,0.00,,,0.00,0000,Weather View 32 v70,2013-03-30 07:15:00,
2013-03-30 03:20:00,41.5,27.8,30.04,NNW,338,0.0,5.0,58,0.00,,,0.00,0008,Weather View 32 v70,2013-03-30 07:20:00,
2013-03-30 03:25:00,41.4,28.1,30.05,NW,315,0.0,5.0,59,0.00,,,0.00,0000,Weather View 32 v70,2013-03-30 07:25:00,
2013-03-30 03:30:00,41.1,28.3,30.04,North,0,0.0,3.0,60,0.00,,,0.00,0000,Weather View 32 v70,2013-03-30 07:30:00,
2013-03-30 03:40:00,41.0,28.2,30.05,NNW,338,0.0,3.0,60,0.00,,,0.00,0000,Weather View 32 v70,2013-03-30 07:40:00,
2013-03-30 03:45:00,40.8,28.0,30.05,NW,315,0.0,3.0,60,0.00,,,0.00,0000,Weather View 32 v70,2013-03-30 07:45:00,
2013-03-30 03:55:00,40.8,28.4,30.04,NNW,338,0.0,3.0,61,0.00,,,0.00,0000,Weather View 32 v70,2013-03-30 07:55:00,
2013-03-30 04:00:00,40.6,27.8,30.05,NW,315,0.0,1.0,60,0.00,,,0.00,0000,Weather View 32 v70,2013-03-30 08:00:00,
2013-03-30 04:05:00,40.7,28.3,30.05,NW,315,0.0,1.0,61,0.00,,,0.00,0000,Weather View 32 v70,2013-03-30 08:05:00,
2013-03-30 04:15:00,40.5,28.5,30.04,NNW,338,0.0,0.0,62,0.00,,,0.00,0008,Weather View 32 v70,2013-03-30 08:15:00,
2013-03-30 04:22:00,40.4,28.3,30.04,NNW,338,0.0,0.0,62,0.00,,,0.00,0000,Weather View 32 v70,2013-03-30 08:22:00,
2013-03-30 04:30:00,40.4,28.3,30.05,NNW,338,0.0,1.0,62,0.00,,,0.00,0000,Weather View 32 v70,2013-03-30 08:30:00,
2013-03-30 04:40:00,40.4,28.0,30.04,NNW,338,0.0,1.0,61,0.00,,,0.00,0000,Weather View 32 v70,2013-03-30 08:40:00,
2013-03-30 04:45:00,40.4,28.0,30.05,North,0,0.0,1.0,61,0.00,,,0.00,0000,Weather View 32 v70,2013-03-30 08:45:00,
2013-03-30 04:55:00,40.4,28.3,30.04,NW,315,0.0,1.0,62,0.00,,,0.00,0000,Weather View 32 v70,2013-03-30 08:55:00,
2013-03-30 05:00:00,40.4,28.0,30.04,NW,315,0.0,4.0,61,0.00,,,0.00,0000,Weather View 32 v70,2013-03-30 09:00:00,
2013-03-30 05:10:00,40.4,28.0,30.05,North,0,0.0,4.0,61,0.00,,,0.00,0000,Weather View 32 v70,2013-03-30 09:10:00,
2013-03-30 05:15:00,40.4,28.0,30.05,NNE,23,0.0,4.0,61,0.00,,,0.00,0000,Weather View 32 v70,2013-03-30 09:15:00,
2013-03-30 05:20:00,40.4,28.0,30.05,NNW,338,0.0,4.0,61,0.00,,,0.00,0000,Weather View 32 v70,2013-03-30 09:20:00,
2013-03-30 05:25:00,40.4,28.0,30.05,NNE,23,0.0,4.0,61,0.00,,,0.00,0000,Weather View 32 v70,2013-03-30 09:25:00,
2013-03-30 05:35:00,40.5,28.1,30.05,NW,315,0.0,4.0,61,0.00,,,0.00,0000,Weather View 32 v70,2013-03-30 09:35:00,
2013-03-30 05:40:00,40.5,27.7,30.05,NNW,338,0.0,4.0,60,0.00,,,0.00,0008,Weather View 32 v70,2013-03-30 09:40:00,
2013-03-30 05:50:00,40.4,28.0,30.05,NNW,338,0.0,4.0,61,0.00,,,0.00,0000,Weather View 32 v70,2013-03-30 09:50:00,
2013-03-30 05:55:00,40.2,27.8,30.05,NW,315,0.0,4.0,61,0.00,,,0.00,0000,Weather View 32 v70,2013-03-30 09:55:00,
2013-03-30 06:05:00,40.2,27.8,30.05,NW,315,0.0,3.0,61,0.00,,,0.00,0000,Weather View 32 v70,2013-03-30 10:05:00,
2013-03-30 06:15:00,40.0,28.0,30.05,North,0,0.0,3.0,62,0.00,,,0.00,0000,Weather View 32 v70,2013-03-30 10:15:00,
2013-03-30 06:20:00,39.8,27.4,30.06,North,0,0.0,3.0,61,0.00,,,0.00,0000,Weather View 32 v70,2013-03-30 10:20:00,
2013-03-30 06:25:00,39.6,27.6,30.05,North,0,0.0,3.0,62,0.00,,,0.00,0000,Weather View 32 v70,2013-03-30 10:25:00,
2013-03-30 06:35:00,39.0,27.5,30.06,NNW,338,0.0,2.0,63,0.00,,,0.00,0000,Weather View 32 v70,2013-03-30 10:35:00,
2013-03-30 06:40:00,38.7,27.5,30.06,NNW,338,0.0,2.0,64,0.00,,,0.00,0000,Weather View 32 v70,2013-03-30 10:40:00,
2013-03-30 06:45:00,38.3,27.2,30.06,WNW,293,0.0,2.0,64,0.00,,,0.00,0000,Weather View 32 v70,2013-03-30 10:45:00,
2013-03-30 06:55:00,37.9,27.1,30.06,NW,315,0.0,2.0,65,0.00,,,0.00,0016,Weather View 32 v70,2013-03-30 10:55:00,
2013-03-30 07:05:00,37.4,27.1,30.07,WNW,293,0.0,2.0,66,0.00,,,0.00,0024,Weather View 32 v70,2013-03-30 11:05:00,
2013-03-30 07:15:00,37.1,27.1,30.07,NW,315,0.0,2.0,67,0.00,,,0.00,0064,Weather View 32 v70,2013-03-30 11:15:00,
2013-03-30 07:23:00,37.2,27.2,30.07,NW,315,0.0,2.0,67,0.00,,,0.00,0104,Weather View 32 v70,2013-03-30 11:23:00,
2013-03-30 07:30:00,37.4,27.8,30.08,NW,315,1.0,1.0,68,0.00,,,0.00,0104,Weather View 32 v70,2013-03-30 11:30:00,
2013-03-30 07:40:00,38.3,28.3,30.08,NNW,338,0.0,3.0,67,0.00,,,0.00,0136,Weather View 32 v70,2013-03-30 11:40:00,
2013-03-30 07:45:00,38.8,28.4,30.08,NW,315,0.0,3.0,66,0.00,,,0.00,0136,Weather View 32 v70,2013-03-30 11:45:00,
2013-03-30 07:55:00,40.1,28.5,30.08,NW,315,0.0,4.0,63,0.00,,,0.00,0192,Weather View 32 v70,2013-03-30 11:55:00,
2013-03-30 08:00:00,40.6,28.2,30.08,NW,315,0.0,4.0,61,0.00,,,0.00,0192,Weather View 32 v70,2013-03-30 12:00:00,
2013-03-30 08:05:00,41.1,28.3,30.08,WSW,248,0.0,4.0,60,0.00,,,0.00,0184,Weather View 32 v70,2013-03-30 12:05:00,
2013-03-30 08:15:00,41.9,27.8,30.08,NW,315,0.0,12.0,57,0.00,,,0.00,0248,Weather View 32 v70,2013-03-30 12:15:00,
2013-03-30 08:24:00,42.4,28.2,30.08,NW,315,0.0,12.0,57,0.00,,,0.00,0264,Weather View 32 v70,2013-03-30 12:24:00,
2013-03-30 08:30:00,43.2,27.6,30.08,NW,315,1.0,12.0,54,0.00,,,0.00,0272,Weather View 32 v70,2013-03-30 12:30:00,
2013-03-30 08:35:00,43.6,28.0,30.08,WSW,248,0.0,12.0,54,0.00,,,0.00,0280,Weather View 32 v70,2013-03-30 12:35:00,
2013-03-30 08:45:00,44.5,27.0,30.08,NNW,338,6.0,30.0,50,0.00,,,0.00,0336,Weather View 32 v70,2013-03-30 12:45:00,
2013-03-30 08:50:00,45.1,27.5,30.08,WNW,293,2.0,30.0,50,0.00,,,0.00,0344,Weather View 32 v70,2013-03-30 12:50:00,
2013-03-30 08:55:00,45.8,27.6,30.08,WNW,293,1.0,30.0,49,0.00,,,0.00,0360,Weather View 32 v70,2013-03-30 12:55:00,
2013-03-30 09:00:00,46.7,27.5,30.08,North,0,0.0,30.0,47,0.00,,,0.00,0352,Weather View 32 v70,2013-03-30 13:00:00,
2013-03-30 09:10:00,47.2,26.9,30.08,North,0,0.0,30.0,45,0.00,,,0.00,0368,Weather View 32 v70,2013-03-30 13:10:00,
2013-03-30 09:15:00,48.0,27.1,30.08,West,270,0.0,30.0,44,0.00,,,0.00,0392,Weather View 32 v70,2013-03-30 13:15:00,
2013-03-30 09:20:00,48.3,26.8,30.08,WNW,293,0.0,30.0,43,0.00,,,0.00,0400,Weather View 32 v70,2013-03-30 13:20:00,
2013-03-30 09:25:00,48.8,26.1,30.08,NNW,338,2.0,30.0,41,0.00,,,0.00,0440,Weather View 32 v70,2013-03-30 13:25:00,
2013-03-30 09:35:00,49.6,26.8,30.08,WNW,293,3.0,30.0,41,0.00,,,0.00,0432,Weather View 32 v70,2013-03-30 13:35:00,
2013-03-30 09:40:00,49.8,26.4,30.08,NNW,338,2.0,30.0,40,0.00,,,0.00,0480,Weather View 32 v70,2013-03-30 13:40:00,
2013-03-30 09:45:00,50.4,25.7,30.08,NNW,338,0.0,10.0,38,0.00,,,0.00,0472,Weather View 32 v70,2013-03-30 13:45:00,
2013-03-30 09:50:00,50.5,25.1,30.08,West,270,3.0,10.0,37,0.00,,,0.00,0480,Weather View 32 v70,2013-03-30 13:50:00,
2013-03-30 10:00:00,51.3,25.2,30.07,North,0,0.0,10.0,36,0.00,,,0.00,0520,Weather View 32 v70,2013-03-30 14:00:00,
2013-03-30 10:10:00,51.6,22.6,30.08,NNW,338,2.0,10.0,32,0.00,,,0.00,0544,Weather View 32 v70,2013-03-30 14:10:00,
2013-03-30 10:15:00,52.3,23.2,30.08,NW,315,1.0,10.0,32,0.00,,,0.00,0552,Weather View 32 v70,2013-03-30 14:15:00,
2013-03-30 10:20:00,52.3,23.2,30.07,North,0,3.0,10.0,32,0.00,,,0.00,0576,Weather View 32 v70,2013-03-30 14:20:00,
2013-03-30 10:25:00,52.2,23.1,30.07,WSW,248,0.0,10.0,32,0.00,,,0.00,0560,Weather View 32 v70,2013-03-30 14:25:00,
2013-03-30 10:35:00,51.9,22.2,30.07,NE,45,1.0,10.0,31,0.00,,,0.00,0616,Weather View 32 v70,2013-03-30 14:35:00,
2013-03-30 10:40:00,52.8,22.2,30.07,North,0,0.0,10.0,30,0.00,,,0.00,0624,Weather View 32 v70,2013-03-30 14:40:00,
2013-03-30 10:45:00,53.0,22.3,30.07,NE,45,1.0,10.0,30,0.00,,,0.00,0616,Weather View 32 v70,2013-03-30 14:45:00,
2013-03-30 10:55:00,54.0,20.7,30.07,NNE,23,5.0,10.0,27,0.00,,,0.00,0632,Weather View 32 v70,2013-03-30 14:55:00,
2013-03-30 11:00:00,53.7,20.5,30.07,NE,45,2.0,10.0,27,0.00,,,0.00,0656,Weather View 32 v70,2013-03-30 15:00:00,
2013-03-30 11:05:00,53.7,20.5,30.07,West,270,4.0,10.0,27,0.00,,,0.00,0672,Weather View 32 v70,2013-03-30 15:05:00,
2013-03-30 11:15:00,53.7,20.5,30.07,NW,315,4.0,10.0,27,0.00,,,0.00,0728,Weather View 32 v70,2013-03-30 15:15:00,
2013-03-30 11:20:00,54.5,19.3,30.07,North,0,3.0,13.0,25,0.00,,,0.00,0560,Weather View 32 v70,2013-03-30 15:20:00,
2013-03-30 11:25:00,54.9,21.5,30.06,West,270,3.0,13.0,27,0.00,,,0.00,0776,Weather View 32 v70,2013-03-30 15:25:00,
2013-03-30 11:35:00,54.8,18.6,30.07,WSW,248,2.0,13.0,24,0.00,,,0.00,0208,Weather View 32 v70,2013-03-30 15:35:00,
2013-03-30 11:40:00,54.2,19.1,30.06,NNW,338,0.0,13.0,25,0.00,,,0.00,0856,Weather View 32 v70,2013-03-30 15:40:00,
2013-03-30 11:50:00,54.5,20.3,30.06,NNW,338,0.0,13.0,26,0.00,,,0.00,0320,Weather View 32 v70,2013-03-30 15:50:00,
2013-03-30 11:55:00,53.7,19.6,30.06,NNW,338,0.0,13.0,26,0.00,,,0.00,0136,Weather View 32 v70,2013-03-30 15:55:00,
2013-03-30 12:05:00,55.0,17.8,30.05,North,0,0.0,13.0,23,0.00,,,0.00,0864,Weather View 32 v70,2013-03-30 16:05:00,
2013-03-30 12:15:00,53.2,18.2,30.05,NNW,338,0.0,13.0,25,0.00,,,0.00,0200,Weather View 32 v70,2013-03-30 16:15:00,
2013-03-30 12:25:00,55.0,16.8,30.04,NNW,338,0.0,11.0,22,0.00,,,0.00,0896,Weather View 32 v70,2013-03-30 16:25:00,
2013-03-30 12:30:00,55.2,18.0,30.05,NNW,338,1.0,11.0,23,0.00,,,0.00,0208,Weather View 32 v70,2013-03-30 16:30:00,
2013-03-30 12:40:00,54.3,14.0,30.05,NNE,23,4.0,13.0,20,0.00,,,0.00,0776,Weather View 32 v70,2013-03-30 16:40:00,
2013-03-30 12:45:00,55.4,16.1,30.04,WNW,293,1.0,13.0,21,0.00,,,0.00,0744,Weather View 32 v70,2013-03-30 16:45:00,
2013-03-30 12:50:00,55.9,16.4,30.04,North,0,0.0,13.0,21,0.00,,,0.00,0760,Weather View 32 v70,2013-03-30 16:50:00,
2013-03-30 12:55:00,56.4,14.6,30.04,NW,315,4.0,13.0,19,0.00,,,0.00,0744,Weather View 32 v70,2013-03-30 16:55:00,
2013-03-30 13:00:00,56.2,10.5,30.04,SW,225,1.0,13.0,16,0.00,,,0.00,0752,Weather View 32 v70,2013-03-30 17:00:00,
2013-03-30 13:05:00,56.2,13.2,30.04,NW,315,3.0,13.0,18,0.00,,,0.00,0776,Weather View 32 v70,2013-03-30 17:05:00,
2013-03-30 13:15:00,56.8,11.0,30.04,West,270,3.0,13.0,16,0.00,,,0.00,0752,Weather View 32 v70,2013-03-30 17:15:00,
2013-03-30 13:20:00,56.7,13.6,30.04,North,0,6.0,13.0,18,0.00,,,0.00,0744,Weather View 32 v70,2013-03-30 17:20:00,
2013-03-30 13:25:00,57.3,11.4,30.03,WSW,248,3.0,13.0,16,0.00,,,0.00,0736,Weather View 32 v70,2013-03-30 17:25:00,
2013-03-30 13:30:00,56.9,11.1,30.03,West,270,3.0,13.0,16,0.00,,,0.00,0752,Weather View 32 v70,2013-03-30 17:30:00,
2013-03-30 13:40:00,57.2,11.3,30.03,WNW,293,2.0,12.0,16,0.00,,,0.00,0736,Weather View 32 v70,2013-03-30 17:40:00,
2013-03-30 13:45:00,57.0,11.2,30.03,West,270,0.0,15.0,16,0.00,,,0.00,0728,Weather View 32 v70,2013-03-30 17:45:00,
2013-03-30 13:50:00,57.0,11.2,30.03,NW,315,3.0,15.0,16,0.00,,,0.00,0736,Weather View 32 v70,2013-03-30 17:50:00,
2013-03-30 13:55:00,57.0,12.5,30.03,NNW,338,4.0,15.0,17,0.00,,,0.00,0728,Weather View 32 v70,2013-03-30 17:55:00,
2013-03-30 14:05:00,54.8,12.0,30.02,WNW,293,0.0,15.0,18,0.00,,,0.00,0728,Weather View 32 v70,2013-03-30 18:05:00,
2013-03-30 14:15:00,57.7,14.4,30.02,WNW,293,0.0,15.0,18,0.00,,,0.00,0712,Weather View 32 v70,2013-03-30 18:15:00,
2013-03-30 14:20:00,57.7,15.6,30.02,WNW,293,0.0,16.0,19,0.00,,,0.00,0696,Weather View 32 v70,2013-03-30 18:20:00,
2013-03-30 14:25:00,58.0,12.0,30.01,WNW,293,6.0,16.0,16,0.00,,,0.00,0672,Weather View 32 v70,2013-03-30 18:25:00,
2013-03-30 14:30:00,58.2,14.8,30.01,NW,315,0.0,16.0,18,0.00,,,0.00,0688,Weather View 32 v70,2013-03-30 18:30:00,
2013-03-30 14:35:00,58.5,15.0,30.01,WSW,248,2.0,16.0,18,0.00,,,0.00,0648,Weather View 32 v70,2013-03-30 18:35:00,
2013-03-30 14:40:00,58.0,12.0,30.01,NNW,338,13.0,16.0,16,0.00,,,0.00,0688,Weather View 32 v70,2013-03-30 18:40:00,
2013-03-30 14:50:00,58.2,12.2,30.01,NW,315,2.0,16.0,16,0.00,,,0.00,0672,Weather View 32 v70,2013-03-30 18:50:00,
2013-03-30 15:00:00,57.1,16.3,30.01,NNW,338,0.0,16.0,20,0.00,,,0.00,0640,Weather View 32 v70,2013-03-30 19:00:00,
2013-03-30 15:10:00,57.5,14.2,30.00,SSW,203,3.0,16.0,18,0.00,,,0.00,0672,Weather View 32 v70,2013-03-30 19:10:00,
2013-03-30 15:15:00,58.7,13.9,30.01,ESE,113,0.0,16.0,17,0.00,,,0.00,0656,Weather View 32 v70,2013-03-30 19:15:00,
2013-03-30 15:25:00,57.8,15.7,30.00,NE,45,2.0,13.0,19,0.00,,,0.00,0616,Weather View 32 v70,2013-03-30 19:25:00,
2013-03-30 15:30:00,57.8,15.7,30.00,NNW,338,0.0,13.0,19,0.00,,,0.00,0136,Weather View 32 v70,2013-03-30 19:30:00,
2013-03-30 15:40:00,56.8,13.6,30.01,NNW,338,3.0,13.0,18,0.00,,,0.00,0584,Weather View 32 v70,2013-03-30 19:40:00,
2013-03-30 15:50:00,57.9,14.6,30.01,WNW,293,2.0,11.0,18,0.00,,,0.00,0528,Weather View 32 v70,2013-03-30 19:50:00,
2013-03-30 15:55:00,57.7,14.4,30.00,West,270,5.0,14.0,18,0.00,,,0.00,0528,Weather View 32 v70,2013-03-30 19:55:00,
2013-03-30 16:00:00,57.8,14.5,30.00,SW,225,5.0,14.0,18,0.00,,,0.00,0544,Weather View 32 v70,2013-03-30 20:00:00,
2013-03-30 16:10:00,57.0,15.1,30.00,West,270,4.0,14.0,19,0.00,,,0.00,0168,Weather View 32 v70,2013-03-30 20:10:00,
2013-03-30 16:20:00,54.8,20.5,30.00,WSW,248,9.0,14.0,26,0.00,,,0.00,0112,Weather View 32 v70,2013-03-30 20:20:00,
2013-03-30 16:28:00,54.1,20.8,30.01,West,270,2.0,14.0,27,0.00,,,0.00,0112,Weather View 32 v70,2013-03-30 20:28:00,
2013-03-30 16:35:00,54.9,21.5,30.01,WSW,248,3.0,14.0,27,0.00,,,0.00,0312,Weather View 32 v70,2013-03-30 20:35:00,
2013-03-30 16:40:00,54.9,21.5,30.01,SSE,158,5.0,14.0,27,0.00,,,0.00,0392,Weather View 32 v70,2013-03-30 20:40:00,
2013-03-30 16:50:00,54.0,20.7,30.00,West,270,7.0,14.0,27,0.00,,,0.00,0096,Weather View 32 v70,2013-03-30 20:50:00,
2013-03-30 17:00:00,53.1,19.9,30.00,SW,225,5.0,14.0,27,0.00,,,0.00,0064,Weather View 32 v70,2013-03-30 21:00:00,
2013-03-30 17:05:00,52.8,20.6,30.01,WSW,248,4.0,14.0,28,0.00,,,0.00,0048,Weather View 32 v70,2013-03-30 21:05:00,
2013-03-30 17:10:00,52.6,19.5,30.01,WSW,248,4.0,14.0,27,0.00,,,0.00,0160,Weather View 32 v70,2013-03-30 21:10:00,
2013-03-30 17:15:00,52.8,19.7,30.01,SW,225,4.0,14.0,27,0.00,,,0.00,0272,Weather View 32 v70,2013-03-30 21:15:00,
2013-03-30 17:20:00,53.0,19.8,30.01,WSW,248,3.0,14.0,27,0.00,,,0.00,0104,Weather View 32 v70,2013-03-30 21:20:00,
2013-03-30 17:29:00,52.6,20.4,30.01,West,270,5.0,14.0,28,0.00,,,0.00,0256,Weather View 32 v70,2013-03-30 21:29:00,
2013-03-30 17:35:00,52.6,19.5,30.01,SSW,203,3.0,14.0,27,0.00,,,0.00,0112,Weather View 32 v70,2013-03-30 21:35:00,
2013-03-30 17:45:00,52.4,20.2,30.01,SSW,203,3.0,14.0,28,0.00,,,0.00,0136,Weather View 32 v70,2013-03-30 21:45:00,
2013-03-30 17:55:00,51.8,21.3,30.01,SW,225,4.0,12.0,30,0.00,,,0.00,0040,Weather View 32 v70,2013-03-30 21:55:00,
2013-03-30 18:00:00,51.4,20.9,30.01,WSW,248,3.0,12.0,30,0.00,,,0.00,0016,Weather View 32 v70,2013-03-30 22:00:00,
2013-03-30 18:05:00,50.8,21.2,30.01,WSW,248,2.0,12.0,31,0.00,,,0.00,0032,Weather View 32 v70,2013-03-30 22:05:00,
2013-03-30 18:15:00,50.6,21.8,30.02,SW,225,2.0,12.0,32,0.00,,,0.00,0048,Weather View 32 v70,2013-03-30 22:15:00,
2013-03-30 18:20:00,50.3,20.7,30.02,NW,315,1.0,12.0,31,0.00,,,0.00,0064,Weather View 32 v70,2013-03-30 22:20:00,
2013-03-30 18:29:00,50.3,21.5,30.02,WSW,248,4.0,12.0,32,0.00,,,0.00,0040,Weather View 32 v70,2013-03-30 22:29:00,
2013-03-30 18:35:00,49.8,21.1,30.02,SSE,158,3.0,15.0,32,0.00,,,0.00,0016,Weather View 32 v70,2013-03-30 22:35:00,
2013-03-30 18:40:00,49.6,20.9,30.02,SW,225,1.0,15.0,32,0.00,,,0.00,0008,Weather View 32 v70,2013-03-30 22:40:00,
2013-03-30 18:50:00,48.8,20.9,30.02,NW,315,0.0,15.0,33,0.00,,,0.00,0000,Weather View 32 v70,2013-03-30 22:50:00,
2013-03-30 18:55:00,48.5,20.6,30.03,West,270,0.0,15.0,33,0.00,,,0.00,0016,Weather View 32 v70,2013-03-30 22:55:00,
2013-03-30 19:05:00,47.7,22.0,30.03,WSW,248,0.0,15.0,36,0.00,,,0.00,0000,Weather View 32 v70,2013-03-30 23:05:00,
2013-03-30 19:10:00,47.2,21.6,30.03,WSW,248,0.0,15.0,36,0.00,,,0.00,0000,Weather View 32 v70,2013-03-30 23:10:00,
2013-03-30 19:20:00,46.5,21.6,30.04,WSW,248,0.0,15.0,37,0.00,,,0.00,0000,Weather View 32 v70,2013-03-30 23:20:00,
2013-03-30 19:30:00,45.8,21.6,30.04,WSW,248,0.0,12.0,38,0.00,,,0.00,0000,Weather View 32 v70,2013-03-30 23:30:00,
2013-03-30 19:40:00,45.1,21.6,30.05,West,270,0.0,12.0,39,0.00,,,0.00,0000,Weather View 32 v70,2013-03-30 23:40:00,
2013-03-30 19:45:00,44.7,21.9,30.05,West,270,0.0,4.0,40,0.00,,,0.00,0000,Weather View 32 v70,2013-03-30 23:45:00,
2013-03-30 19:55:00,44.1,23.0,30.05,WSW,248,0.0,1.0,43,0.00,,,0.00,0000,Weather View 32 v70,2013-03-30 23:55:00,
2013-03-30 20:00:00,43.7,23.2,30.05,West,270,0.0,1.0,44,0.00,,,0.00,0000,Weather View 32 v70,2013-03-31 00:00:00,
2013-03-30 20:05:00,43.4,23.4,30.06,NW,315,0.0,1.0,45,0.00,,,0.00,0000,Weather View 32 v70,2013-03-31 00:05:00,
2013-03-30 20:15:00,42.6,23.8,30.06,WNW,293,0.0,0.0,47,0.00,,,0.00,0000,Weather View 32 v70,2013-03-31 00:15:00,
2013-03-30 20:20:00,42.4,24.5,30.06,WNW,293,0.0,0.0,49,0.00,,,0.00,0000,Weather View 32 v70,2013-03-31 00:20:00,
2013-03-30 20:25:00,42.2,24.3,30.06,WNW,293,0.0,0.0,49,0.00,,,0.00,0000,Weather View 32 v70,2013-03-31 00:25:00,
2013-03-30 20:31:00,41.6,24.3,30.06,WNW,293,0.0,0.0,50,0.00,,,0.00,0000,Weather View 32 v70,2013-03-31 00:31:00,
2013-03-30 20:40:00,41.4,23.1,30.07,WNW,293,0.0,1.0,48,0.00,,,0.00,0000,Weather View 32 v70,2013-03-31 00:40:00,
2013-03-30 20:45:00,41.0,23.3,30.07,NW,315,0.0,1.0,49,0.00,,,0.00,0008,Weather View 32 v70,2013-03-31 00:45:00,
2013-03-30 20:55:00,40.6,24.3,30.08,NW,315,0.0,1.0,52,0.00,,,0.00,0000,Weather View 32 v70,2013-03-31 00:55:00,
2013-03-30 21:00:00,40.4,24.6,30.08,NNW,338,0.0,1.0,53,0.00,,,0.00,0000,Weather View 32 v70,2013-03-31 01:00:00,
2013-03-30 21:05:00,40.0,24.2,30.08,WNW,293,0.0,1.0,53,0.00,,,0.00,0000,Weather View 32 v70,2013-03-31 01:05:00,
2013-03-30 21:15:00,39.6,23.4,30.08,NNW,338,0.0,1.0,52,0.00,,,0.00,0000,Weather View 32 v70,2013-03-31 01:15:00,
2013-03-30 21:20:00,39.5,23.3,30.09,NW,315,0.0,1.0,52,0.00,,,0.00,0008,Weather View 32 v70,2013-03-31 01:20:00,
2013-03-30 21:25:00,39.3,23.2,30.09,NW,315,0.0,1.0,52,0.00,,,0.00,0000,Weather View 32 v70,2013-03-31 01:25:00,
2013-03-30 21:30:00,39.2,23.5,30.09,NW,315,0.0,1.0,53,0.00,,,0.00,0000,Weather View 32 v70,2013-03-31 01:30:00,
2013-03-30 21:35:00,39.1,23.0,30.09,NW,315,0.0,1.0,52,0.00,,,0.00,0000,Weather View 32 v70,2013-03-31 01:35:00,
2013-03-30 21:45:00,38.7,24.3,30.09,NNW,338,0.0,7.0,56,0.00,,,0.00,0000,Weather View 32 v70,2013-03-31 01:45:00,
2013-03-30 21:55:00,38.4,24.9,30.09,West,270,1.0,7.0,58,0.00,,,0.00,0016,Weather View 32 v70,2013-03-31 01:55:00,
2013-03-30 22:00:00,38.2,25.1,30.09,NW,315,0.0,7.0,59,0.00,,,0.00,0000,Weather View 32 v70,2013-03-31 02:00:00,
2013-03-30 22:05:00,38.0,25.3,30.09,West,270,0.0,7.0,60,0.00,,,0.00,0000,Weather View 32 v70,2013-03-31 02:05:00,
2013-03-30 22:10:00,38.0,25.3,30.09,WNW,293,0.0,7.0,60,0.00,,,0.00,0000,Weather View 32 v70,2013-03-31 02:10:00,
2013-03-30 22:20:00,37.3,25.1,30.09,NW,315,0.0,7.0,61,0.00,,,0.00,0008,Weather View 32 v70,2013-03-31 02:20:00,
2013-03-30 22:25:00,37.4,25.6,30.09,WNW,293,0.0,7.0,62,0.00,,,0.00,0000,Weather View 32 v70,2013-03-31 02:25:00,
2013-03-30 22:30:00,37.2,25.4,30.10,WNW,293,0.0,7.0,62,0.00,,,0.00,0000,Weather View 32 v70,2013-03-31 02:30:00,
2013-03-30 22:40:00,37.2,26.1,30.10,WNW,293,0.0,7.0,64,0.00,,,0.00,0000,Weather View 32 v70,2013-03-31 02:40:00,
2013-03-30 22:45:00,37.4,27.1,30.10,WNW,293,0.0,7.0,66,0.00,,,0.00,0000,Weather View 32 v70,2013-03-31 02:45:00,
2013-03-30 22:50:00,37.5,27.2,30.10,WNW,293,0.0,3.0,66,0.00,,,0.00,0000,Weather View 32 v70,2013-03-31 02:50:00,
2013-03-30 23:00:00,37.3,27.0,30.10,WNW,293,1.0,3.0,66,0.00,,,0.00,0000,Weather View 32 v70,2013-03-31 03:00:00,
2013-03-30 23:10:00,37.2,27.2,30.10,West,270,0.0,3.0,67,0.00,,,0.00,0008,Weather View 32 v70,2013-03-31 03:10:00,
2013-03-30 23:15:00,37.0,27.0,30.10,West,270,2.0,4.0,67,0.00,,,0.00,0000,Weather View 32 v70,2013-03-31 03:15:00,
2013-03-30 23:25:00,36.9,26.9,30.10,WNW,293,0.0,4.0,67,0.00,,,0.00,0008,Weather View 32 v70,2013-03-31 03:25:00,
2013-03-30 23:30:00,36.8,27.2,30.10,West,270,0.0,4.0,68,0.00,,,0.00,0008,Weather View 32 v70,2013-03-31 03:30:00,
2013-03-30 23:40:00,36.3,26.7,30.10,West,270,0.0,4.0,68,0.00,,,0.00,0000,Weather View 32 v70,2013-03-31 03:40:00,
2013-03-30 23:50:00,36.4,27.2,30.10,NW,315,0.0,4.0,69,0.00,,,0.00,0000,Weather View 32 v70,2013-03-31 03:50:00,
2013-03-30 23:55:00,36.6,27.4,30.10,NNW,338,0.0,4.0,69,0.00,,,0.00,0000,Weather View 32 v70,2013-03-31 03:55:00,